VK5ALG-13 Weather Reports


time (UTC)temp
C
wind
direction
speed
KPH
gust
KPH
rain 1hr
cm
rain 24hr
cm
rain mn
cm
humidity
%
barometer
mb
20260503232031 16 204 3.2 12.9 0.00 1.47 0.53 84 1014.0
20260503231028 15 284 3.2 4.8 0.03 1.47 0.53 84 1013.8
20260503230025 15 275 3.2 11.3 0.03 1.47 0.53 86 1013.7
20260503225021 15 298 1.6 4.8 0.03 1.47 0.53 87 1013.5
20260503224037 14 299 1.6 4.8 0.03 1.47 0.53 88 1013.4
20260503223034 13 273 1.6 4.8 0.03 1.47 0.53 88 1013.3
20260503222030 13 248 3.2 6.4 0.03 1.47 0.53 87 1013.2
20260503221027 14 253 3.2 9.7 0.00 1.45 0.51 88 1013.0
20260503220023 14 238 3.2 9.7 0.00 1.45 0.51 88 1012.8
20260503215041 14 267 1.6 6.4 0.03 1.45 0.51 88 1012.7
20260503214036 14 243 3.2 9.7 0.03 1.45 0.51 88 1012.7
20260503213053 14 244 3.2 9.7 0.03 1.45 0.51 88 1012.5
20260503212049 14 261 3.2 9.7 0.03 1.45 0.51 88 1012.4
20260503211025 14 312 3.2 11.3 0.03 1.45 0.51 88 1012.2
20260503210022 14 298 3.2 9.7 0.03 1.45 0.51 87 1012.3
20260503205019 14 288 3.2 9.7 0.00 1.42 0.48 87 1012.1
20260503204035 14 308 3.2 6.4 0.00 1.42 0.48 87 1012.1
20260503203032 14 253 3.2 12.9 0.00 1.42 0.48 87 1011.9
20260503202028 14 279 4.8 11.3 0.00 1.42 0.48 87 1011.7
20260503201024 14 278 3.2 9.7 0.00 1.42 0.48 88 1011.7
20260503200021 14 351 3.2 9.7 0.05 1.42 0.48 89 1011.7
20260503195017 13 329 3.2 6.4 0.05 1.42 0.48 89 1011.7
20260503194034 13 307 3.2 9.7 0.05 1.42 0.48 90 1011.7
20260503193030 13 282 3.2 9.7 0.05 1.42 0.48 89 1011.6
20260503192027 13 296 6.4 12.9 0.05 1.42 0.48 89 1011.6
20260503191024 14 234 6.4 20.9 0.05 1.42 0.48 86 1011.5
20260503190025 14 253 4.8 12.9 0.00 1.37 0.43 84 1011.5
20260503185036 14 277 4.8 16.1 0.00 1.37 0.43 83 1011.4
20260503184033 14 288 4.8 6.4 0.00 1.37 0.43 84 1011.4
20260503183049 14 279 3.2 12.9 0.00 1.37 0.43 84 1011.3
20260503182025 14 289 3.2 6.4 0.00 1.37 0.43 85 1011.3
20260503181022 13 244 3.2 9.7 0.00 1.37 0.43 86 1011.4
20260503180018 13 284 4.8 11.3 0.00 1.42 0.43 87 1011.4
20260503175035 13 300 3.2 12.9 0.00 1.50 0.43 87 1011.4
20260503174032 13 323 4.8 11.3 0.00 1.55 0.43 87 1011.5
20260503173048 13 297 4.8 16.1 0.00 1.57 0.43 88 1011.7
20260503172045 13 273 3.2 11.3 0.00 1.63 0.43 89 1011.7
20260503171021 13 284 3.2 9.7 0.00 1.68 0.43 89 1011.8
20260503131017 13 327 3.2 6.4 0.00 1.50 1.50 83 1012.8
20260503081030 15 327 4.8 14.5 0.00 0.71 0.71 75 1011.2
20260503080107 15 281 3.2 6.4 0.00 0.71 0.71 75 1011.1
20260503072032 15 38 4.8 12.9 0.00 0.71 0.71 79 1011.1
20260503071028 15 28 3.2 6.4 0.00 0.71 0.71 78 1011.1
20260503055019 17 293 4.8 11.3 0.08 0.76 0.64 66 1010.9
20260503054036 17 319 6.4 16.1 0.00 0.69 0.56 62 1010.7
20260503053032 17 343 8.0 14.5 0.00 0.74 0.56 61 1010.6
20260503052028 18 317 8.0 14.5 0.00 0.74 0.56 57 1010.6
20260503051025 18 315 6.4 14.5 0.00 0.74 0.56 58 1010.5
20260503050021 18 31 4.8 16.1 0.00 0.74 0.56 58 1010.6
20260503045018 18 320 8.0 22.5 0.00 0.79 0.56 57 1010.5
20260503044035 17 326 4.8 14.5 0.00 0.84 0.56 64 1010.7
20260503043030 17 269 8.0 17.7 0.00 0.91 0.56 59 1010.6
20260503042027 17 342 6.4 20.9 0.00 0.94 0.56 61 1010.7
20260503041023 17 295 6.4 17.7 0.00 1.04 0.56 59 1010.8
20260503040020 17 286 6.4 25.7 0.00 1.04 0.56 60 1010.9
20260503035042 18 354 6.4 16.1 0.00 1.04 0.56 59 1010.9
20260503034033 17 306 6.4 20.9 0.00 1.04 0.56 61 1011.0
20260503033029 17 8 8.0 24.1 0.00 1.07 0.56 61 1011.1
20260503032025 17 326 6.4 14.5 0.00 1.07 0.56 62 1011.2
20260503031022 17 213 4.8 14.5 0.00 1.09 0.56 64 1011.2
20260503030018 16 311 9.7 30.6 0.00 1.14 0.56 64 1011.3
20260503025034 17 307 6.4 16.1 0.00 1.14 0.56 63 1011.3
20260503024031 17 345 6.4 14.5 0.00 1.14 0.56 60 1011.4
20260503023048 17 306 8.0 20.9 0.00 1.14 0.56 63 1011.4
20260503022024 17 328 6.4 12.9 0.00 1.14 0.56 68 1011.5
20260503021040 16 33 6.4 20.9 0.00 1.14 0.56 70 1011.6
20260503020037 16 1 4.8 14.5 0.00 1.14 0.56 71 1011.5
20260503015034 16 48 6.4 25.7 0.00 1.14 0.56 68 1011.6
20260503014050 17 298 6.4 22.5 0.00 1.14 0.56 65 1011.6
20260503013037 17 35 6.4 16.1 0.00 1.14 0.56 66 1011.6
20260503012022 17 341 4.8 16.1 0.00 1.14 0.56 66 1011.6
20260503011018 16 328 6.4 14.5 0.00 1.14 0.56 70 1011.6
20260503010035 16 353 6.4 14.5 0.00 1.14 0.56 69 1011.7
20260503005031 16 36 6.4 22.5 0.00 1.14 0.56 70 1011.6
20260503004027 16 23 4.8 14.5 0.00 1.14 0.56 72 1011.8
20260503003043 15 8 4.8 14.5 0.00 1.14 0.56 73 1011.9
20260503002020 15 349 4.8 17.7 0.00 1.14 0.56 75 1012.0
20260503001040 15 29 4.8 16.1 0.00 1.14 0.56 75 1012.0
20260503000042 15 61 6.4 16.1 0.00 1.14 0.56 73 1011.9
20260502235029 15 72 6.4 22.5 0.00 1.14 0.56 74 1012.1
20260502234046 15 75 8.0 16.1 0.00 1.14 0.56 75 1012.0
20260502233021 15 44 6.4 20.9 0.00 1.14 0.56 76 1012.0